DELTA 1 DEB, 21278

Orbit data source: Space-Track

DELTA 1 DEB, 21278 is space debris in SSO originally from a launch on Thu, 12 Jun 1975 UTC launched from the Air Force Western Test Range (AFWTR). Debris objects in space refer to the collection of defunct objects orbiting the Earth. Examples of debris include non-operational satellites, rocket bodies, and fragments generated from explosions, collisions, or faulty payload assembly.

Loading next visibility...
Identifier
21278, 1975-052P
Orbit
SSO
Country
Flag of USUS
Related business
Manufacturer
Unknown
Mission
Spacecraft
Bus & Motor
Unknown
Mass
Unknown
Launch date (UTC)
1975-06-12 (51 years ago)
Launch vehicle
Unknown
Launch site
Air Force Western Test Range (AFWTR)
Object type
Payload
Rocket body
Debris
Shape & HBR
Unknown shape, 0.3 m
Radar Cross Section
Medium (>0.1 m² and <1 m²)

Expand to show TLE details & history
Last TLE update: 19 hours ago

TLE from 19 hours ago
0 DELTA 1 DEB
1 21278U 75052P   25348.75778617  .00000110  00000-0  49442-3 0  9997
2 21278  99.7974 161.9378 0389313 274.0668  96.7933 12.77514356613000
Epoch: 2025-12-14T18:11Z
TLE epoch observation values (Epoch: 2025-12-14T18:11:12.725Z)
Latitude
15.00967°
Longitude
162.82794°
Altitude
1,400.537 km
Speed
7.139 km/s
True Right ascension
10h 37m 11s
True Declination
14° 55' 51"
Sunlit
Object was in daylight at epoch
Visualization orbit readout
Latitude
Unknown
Longitude
Unknown
Altitude
Unknown
Speed
Unknown
Apparent Right ascension
Unknown
Apparent Declination
Unknown
Sunlit
N/A
Visualization observer readout
Local Sidereal Time
11:44:25
Azimuth
Unknown
Elevation
Unknown
Doppler factor
Unknown
Orbital elements
Apogee altitude
1,649.701 km
Perigee altitude
1,048.055 km
Semi-major axis
7,727.015 km
Eccentricity
0.03893
Inclination
99.7974°
RAAN
161.9378°
Arg. of periapsis
274.0668°
True anomaly
101.19349°
Mean anomaly
96.7933°
Eccentric anomaly
98.99646°
Mean motion
3.1954 °/min
Orbital period
112.66 mins
BSTAR
0.00049442
Loading maneuver chart data...
Computing Atmospheric mass density...

Documentation

Showing up to 5 results
|